Home   Weather   Nuuk   Past weeks
Flag for Greenland

Past Weather in Nuuk, Greenland — June 2016

Now
23 °F

Passing clouds.


Feels Like: 18 °F
Forecast: 22 / 26 °F
Wind: 3 mph from Northeast

Location: Godthaab / Nuuk

Current Time: Dec 16, 2018 at 5:14:36 am

Latest Report: Dec 16, 2018 at 3:50 am


Visibility: N/A

Pressure: 29.33 "Hg

Humidity: 93%

Dew Point: 21 °F

Location of NuukLocation

June 2016 Weather in Nuuk — Graph

°F

High & Low Weather Summary for June 2016

 TemperatureHumidityPressure
High75 °F (Jun 9, 2:50 pm)100% (Jun 4, 1:50 am)30.36 "Hg (Jun 4, 1:50 am)
Low34 °F (Jun 1, 12:50 am)24% (Jun 10, 4:50 pm)29.45 "Hg (Jun 22, 4:50 am)
Average46 °F74%29.86 "Hg
* Reported Jun 1 12:50 am — Jun 30 11:50 pm, Nuuk. Weather by CustomWeather, © 2018

Note: Actual official high and low records may vary slightly from our data, if they occured in-between our weather recording intervals... More about our weather records

Advertising

Nuuk Weather History for June 1, 2016

Scroll right to see more
 ConditionsComfort  
Time TempWeatherWind HumidityBarometerVisibility
12:50 am
Wed, Jun 1
34 °FPassing clouds.8 mph87%30.07 "HgN/A
1:50 am36 °FChilly.10 mph81%30.04 "HgN/A
2:50 am36 °FChilly.15 mph81%30.04 "HgN/A
3:50 am36 °FPassing clouds.17 mph81%30.04 "HgN/A
4:50 am36 °FChilly.18 mph81%30.01 "HgN/A
5:50 am37 °FPartly sunny.17 mph75%30.01 "HgN/A
6:50 am39 °FPartly sunny.21 mph70%30.01 "HgN/A
7:50 am39 °FPartly sunny.12 mph70%30.01 "HgN/A
8:50 am41 °FPartly sunny.6 mph61%30.04 "HgN/A
9:50 am43 °FPartly sunny.2 mph61%30.04 "HgN/A
10:50 am45 °FPartly sunny.5 mph53%30.07 "HgN/A
11:50 am43 °FPartly sunny.7 mph57%30.07 "HgN/A
12:50 pm45 °FPartly sunny.3 mph57%30.09 "HgN/A
1:50 pm46 °FPartly sunny.3 mph53%30.09 "HgN/A
2:50 pm46 °FPartly sunny.5 mph53%30.09 "HgN/A
3:50 pm46 °FPartly sunny.3 mph57%30.12 "HgN/A
4:50 pm45 °FDrizzle. Partly sunny.7 mph76%30.15 "HgN/A
5:50 pm45 °FBroken clouds.8 mph76%30.12 "HgN/A
6:50 pm45 °FBroken clouds.7 mph66%30.15 "HgN/A
7:50 pm43 °FBroken clouds.7 mph71%30.15 "HgN/A
8:50 pm43 °FBroken clouds.8 mph76%30.15 "HgN/A
9:50 pm43 °FDrizzle. Broken clouds.9 mph76%30.15 "HgN/A
10:50 pm41 °FDrizzle. Overcast.7 mph81%30.15 "HgN/A
11:50 pm41 °FPartly sunny.6 mph81%30.12 "HgN/A
Weather by CustomWeather, © 2018

See weather overview